Weather in Xojikent

Uzbekistan     41°38′08″N   69°56′58″E
temp.,
°C
wind,
m/s
gust,
m/s
humid.,
%
clouds,
%
prec.,
mm/h
press.,
hPa
HPBL,
m
13 may, thu
thu1323:00+9ene22750 0.0 101514
02:00+8ne43655 0.0 101534
05:00+8ne43600 0.0 101537
08:00+13ne22480 0.0 1014316
11:00+17w22414 0.0 10131790
14:00+19w32426 0.0 10132200
17:00+17wnw22514 0.2 10121196
20:00+11s01753 0.5 101410
14 may, fri
fri1423:00+10ene32780 0.5 101517
02:00+8ne44730 0.0 101539
05:00+8ne44670 0.0 101540
08:00+15ne22504 0.0 1014314
11:00+18w22431 0.0 10131650
14:00+19w32435 0.0 10131894
17:00+18w21511 0.1 10121237
20:00+12s11761 0.1 101311
15 may, sat
sat1523:00+10ene33770 0.1 101324
02:00+9ene43660 0.0 101335
05:00+8ne44590 0.0 101443
08:00+15ene22450 0.0 1013272
11:00+19w32430 0.0 10111322
14:00+20w32463 0.0 10111868
17:00+19w21492 0.0 10101258
20:00+13sse01720 0.1 101110
16 may, sun
sun1623:00+11ene33760 0.1 101321
02:00+10ne44680 0.0 101342
05:00+9ene44600 0.0 101340
08:00+16ene22450 0.0 1013267
11:00+20wsw32410 0.0 10121483
14:00+21wsw33351 0.0 10112080
17:00+20wsw22361 0.1 10111480
20:00+13e33540 0.1 101323
17 may, mon
mon1723:00+10ene44620 0.1 101455
02:00+10ene44590 0.0 101448
05:00+9ne44570 0.0 101548
08:00+16ene22460 0.0 1014242
11:00+20sw23250 0.0 10132212
14:00+21sw23263 0.0 10123053
17:00+21w22291 0.0 10112587
20:00+14ne32450 0.0 101212